Tracking 25710 objects as of 7-Jul-2022
HD Live streaming from Space Station
objects crossing your sky now

FENGYUN 1C DEB

Track FENGYUN 1C DEB now!
10-day predictions


NORAD ID: 31323
Int'l Code: 1999-025BQB
Perigee: 824.5 km
Apogee: 882.9 km
Inclination: 99.4 °
Period: 101.9 minutes
Semi major axis: 7224 km
RCS: 0.0017 m2 (small)
Launch date: May 10, 1999
Source: People's Republic of China (PRC)
Launch site: Taiyaun Space Center, China (TSC)

Note: This is SATELLITE DEBRIS
aabbcc
Your satellite tracking list
Your tracking list is empty




NASA's NSSDC Master Catalog

Two Line Element Set (TLE):
1 31323U 99025BQB 22185.54960656  .00001136  00000-0  62140-3 0  9993
2 31323  99.3826 127.7278 0040427  23.7546 336.5479 14.13748018782741
Source of the keplerian elements: AFSPC